Home > Time Zones > World Clock > Weather > Latvia > Riga > Past weeks

Flag Weather past 2 weeks in Riga, Latvia

Now
30 °F

Low clouds.


Feels Like: 23 °F
Forecast: 19 / 23 °F
Wind: 8 mph from South

Location: Riga Airport

Current Time: Nov 27, 2014 at 4:17:26 AM

Latest Report: Nov 27, 2014 at 3:50 AM


Visibility: 5 mi

Pressure: 30.33 "Hg

Humidity: 93%

Dew point: 28 °F

Location of RigaLocation

Historic Weather in Riga — Graph

°F

Riga temperature yesterday

Maximum temperature yesterday: 32 °F (at 12:20 AM)
Minimum temperature yesterday: 30 °F (at 8:50 PM)
Average temperature yesterday: 32 °F

Past Weeks' High & Low Weather Summary

 TemperatureHumidityPressure
High48 °F (Nov 12, 3:20 AM)100% (Nov 12, 3:20 AM)30.57 "Hg (Nov 12, 3:20 AM)
Low28 °F (Nov 18, 11:50 PM)64% (Nov 18, 11:20 PM)30.09 "Hg (Nov 12, 3:20 AM)
Average36 °F89%30.32 "Hg
* Reported Nov 12 3:20 AM — Nov 27 3:20 AM, Riga, Weather by CustomWeather, © 2014

Note: Actual official high and low records may vary slightly from our data, if they occured in-between our weather recording intervals... More about our weather records

Advertising

Riga weather history for previous 24 hours

 ConditionsComfort  
Time TempWeatherWind HumidityBarometerVisibility
3:20 AM
Nov 27
30 °FLow clouds.8 mph93%30.33 "Hg6 mi
2:50 AM30 °FLow clouds.9 mph93%30.33 "Hg5 mi
2:20 AM30 °FLow clouds.8 mph93%30.33 "Hg5 mi
1:50 AM30 °FLow clouds.9 mph93%30.33 "Hg6 mi
1:20 AM30 °FLow clouds.10 mph93%30.33 "Hg6 mi
12:50 AM30 °FLow clouds.8 mph93%30.33 "Hg5 mi
12:20 AM30 °FLow clouds.10 mph93%30.33 "Hg5 mi
11:50 PM
Nov 26
30 °FLow clouds.9 mph100%30.33 "Hg4 mi
11:20 PM30 °FLow clouds.12 mph100%30.33 "Hg5 mi
10:50 PM30 °FLow clouds.9 mph100%30.33 "Hg4 mi
10:20 PM30 °FLow clouds.10 mph100%30.33 "Hg4 mi
9:50 PM30 °FLow clouds.8 mph100%30.33 "Hg5 mi
9:20 PM30 °FLow clouds.9 mph100%30.33 "Hg4 mi
8:50 PM30 °FLow clouds.9 mph100%30.33 "Hg4 mi
8:20 PM32 °FLow clouds.9 mph93%30.33 "Hg4 mi
7:50 PM32 °FLow clouds.10 mph93%30.33 "Hg4 mi
7:20 PM32 °FLow clouds.12 mph93%30.33 "Hg4 mi
6:50 PM32 °FLow clouds.9 mph93%30.33 "Hg4 mi
6:20 PM32 °FLow clouds.10 mph93%30.33 "Hg4 mi
5:50 PM32 °FLow clouds.10 mph93%30.33 "Hg4 mi
5:20 PM32 °FLow clouds.9 mph93%30.33 "Hg4 mi
4:50 PM32 °FLow clouds.10 mph93%30.33 "Hg4 mi
4:20 PM32 °FIce fog.10 mph93%30.33 "Hg3 mi
3:50 PM32 °FIce fog.10 mph93%30.33 "Hg3 mi
3:20 PM32 °FIce fog.9 mph93%30.33 "Hg3 mi
2:50 PM32 °FIce fog.9 mph93%30.33 "Hg3 mi
2:20 PM32 °FIce fog.9 mph93%30.33 "Hg3 mi
1:50 PM32 °FLow clouds.10 mph93%30.33 "Hg4 mi
1:20 PM32 °FLow clouds.10 mph93%30.33 "Hg4 mi
12:50 PM32 °FLow clouds.12 mph93%30.36 "Hg4 mi
12:20 PM32 °FIce fog.9 mph93%30.36 "Hg3 mi
11:50 AM32 °FIce fog.9 mph93%30.36 "Hg3 mi
11:20 AM32 °FIce fog.10 mph93%30.36 "Hg3 mi
10:50 AM32 °FIce fog.12 mph93%30.33 "Hg2 mi
10:20 AM32 °FIce fog.10 mph93%30.36 "Hg2 mi
9:50 AM32 °FIce fog.10 mph93%30.33 "Hg2 mi
9:20 AM32 °FIce fog.13 mph100%30.33 "Hg2 mi
8:50 AM32 °FIce fog.12 mph100%30.33 "Hg2 mi
8:20 AM32 °FIce fog.10 mph100%30.33 "Hg3 mi
7:50 AM32 °FLow clouds.13 mph100%30.33 "Hg4 mi
7:20 AM32 °FLow clouds.10 mph100%30.33 "Hg4 mi
6:50 AM32 °FLow clouds.10 mph100%30.33 "Hg4 mi
6:20 AM32 °FLow clouds.12 mph100%30.33 "Hg4 mi
5:20 AM32 °FLow clouds.10 mph100%30.33 "Hg4 mi
4:50 AM32 °FLow clouds.10 mph100%30.33 "Hg4 mi
4:20 AM32 °FLow clouds.10 mph100%30.33 "Hg4 mi
Weather by CustomWeather, © 2014

See weather overviewHow to use our weather pages